Weather History for KFNB - April, 2012

Change the Weather History Date:

Thursday, April 26, 2012

  Actual Average Record
Temperature  
Mean Temperature 62 °F -  
Max Temperature 77 °F 71 °F 95 °F (1989)
Min Temperature 50 °F 46 °F 24 °F (1950)
Degree Days  
Heating Degree Days 2    
Growing Degree Days 12 (Base 50)    
Moisture  
Dew Point 45 °F    
Average Humidity 49    
Maximum Humidity 77    
Minimum Humidity 32    
Precipitation  
Precipitation 0.00 in - - ()
Sea Level Pressure  
Sea Level Pressure 29.92 in    
Wind  
Wind Speed 7 mph (NE)    
Max Wind Speed 14 mph    
Max Gust Speed 22 mph    
Visibility 10 miles    
Events      
Averages and records for this station are not official NWS values.
T = Trace of Precipitation, MM = Missing Value Source: NWS Daily Summary

Daily Weather History Graph

Daily Weather History Graph

Search for Another Location

Airport or City:

Trip Planner

Search our weather history database for the weather conditions in past years. The results will help you decide how hot, cold, wet, or windy it might be!

Date:

Astronomy

Apr. 26, 2012 Rise Set
Actual Time 6:28 AM CDT 8:12 PM CDT
Civil Twilight 5:59 AM CDT 8:41 PM CDT
Nautical Twilight 5:24 AM CDT 9:16 PM CDT
Astronomical Twilight 4:46 AM CDT 9:54 PM CDT
Moon 10:08 AM CDT (4/26) 12:18 AM CDT (4/26)
Length of Visible Light 14h 42m
Length of Day
13h 44m
Waxing Crescent, 24% of the Moon is Illuminated
Apr 26
Waxing Crescent
Apr 29
First Quarter
May 5
Full
May 12
Last Quarter
May 20
New

Hourly Weather History & Observations

Time (CDT) Temp. Dew Point Humidity Pressure Visibility Wind Dir Wind Speed Gust Speed Precip Events Conditions
12:53 AM 61.0 °F 42.1 °F 50% 29.78 in 10.0 mi WNW 5.8 mph - N/A   Clear
1:53 AM 61.0 °F 43.0 °F 52% 29.79 in 10.0 mi WNW 5.8 mph - N/A   Clear
2:53 AM 60.1 °F 43.0 °F 53% 29.80 in 10.0 mi WNW 3.5 mph - N/A   Clear
3:53 AM 57.0 °F 43.0 °F 59% 29.81 in 10.0 mi West 3.5 mph - N/A   Clear
4:53 AM 55.9 °F 43.0 °F 62% 29.83 in 10.0 mi West 4.6 mph - N/A   Clear
5:53 AM 50.0 °F 43.0 °F 77% 29.86 in 10.0 mi NNW 4.6 mph - N/A   Clear
6:53 AM 52.0 °F 44.1 °F 74% 29.88 in 10.0 mi NNW 4.6 mph - N/A   Clear
7:53 AM 59.0 °F 46.0 °F 62% 29.91 in 10.0 mi NNW 4.6 mph - N/A   Clear
8:53 AM 66.9 °F 46.9 °F 49% 29.93 in 10.0 mi NE 10.4 mph - N/A   Clear
9:53 AM 70.0 °F 48.0 °F 46% 29.96 in 10.0 mi NE 10.4 mph - N/A   Clear
10:53 AM 72.0 °F 48.9 °F 44% 29.97 in 10.0 mi NNE 12.7 mph - N/A   Clear
11:53 AM 73.9 °F 48.9 °F 41% 29.98 in 10.0 mi NNE 10.4 mph - N/A   Clear
12:53 PM 73.9 °F 50.0 °F 43% 29.98 in 10.0 mi NE 8.1 mph - N/A   Clear
1:53 PM 73.9 °F 48.9 °F 41% 29.98 in 10.0 mi ENE 9.2 mph - N/A   Clear
2:53 PM 75.9 °F 46.0 °F 35% 29.97 in 10.0 mi East 8.1 mph - N/A   Clear
3:53 PM 75.9 °F 44.1 °F 32% 29.96 in 10.0 mi NE 9.2 mph - N/A   Clear
4:53 PM 73.9 °F 44.1 °F 34% 29.96 in 10.0 mi ENE 8.1 mph - N/A   Clear
5:53 PM 73.0 °F 44.1 °F 35% 29.96 in 10.0 mi ENE 11.5 mph - N/A   Clear
6:53 PM 71.1 °F 44.1 °F 38% 29.95 in 10.0 mi East 13.8 mph - N/A   Clear
7:53 PM 69.1 °F 46.0 °F 44% 29.93 in 10.0 mi East 13.8 mph - N/A   Clear
8:53 PM 68.0 °F 46.0 °F 45% 29.93 in 10.0 mi East 10.4 mph - N/A   Clear
9:53 PM 64.0 °F 45.0 °F 50% 29.94 in 10.0 mi East 11.5 mph - N/A   Clear
10:53 PM 64.0 °F 45.0 °F 50% 29.96 in 10.0 mi East 11.5 mph 21.9 mph N/A   Mostly Cloudy
11:53 PM 62.1 °F 43.0 °F 50% 29.98 in 10.0 mi East 10.4 mph - 0.00 in   Overcast